Regional Weather Roundup
Issued by NWS Nashville, TN

Home | Current Version | Previous Version | Text Only | Print | Product List | Glossary On
Versions: 1 2 3 4 5 6 7 8 9 10 11 12 13 14 15 16 17 18 19 20 21 22 23 24 25 26 27 28 29 30 31 32 33 34 35 36 37 38 39 40 41 42 43 44 45 46 47 48 49 50
000
ASUS44 KOHX 230510
RWROHX
MIDDLE TENNESSEE HOURLY WEATHER ROUNDUP
NATIONAL WEATHER SERVICE NASHVILLE TN
1100 PM CST MON JAN 22 2018

NOTE: "FAIR" INDICATES FEW OR NO CLOUDS BELOW 12,000 FEET WITH
NO SIGNIFICANT WEATHER AND/OR OBSTRUCTIONS TO VISIBILITY.

* THESE REPORTS ARE NOT UNDER NWS QUALITY CONTROL AND MAY NOT
  REPORT WEATHER SUCH AS PRECIPITATION AND FOG.


TNZ005>011-023>034-057-059-062>066-078-080-230600
...NORTHERN MIDDLE TENNESSEE...

CITY           SKY/WX    TMP DP  RH WIND       PRES   REMARKS
CLARKSVILLE      N/A     47  29  49 SW10G21   29.76S
CROSSVILLE     MOCLDY    55  42  61 SW18G35   29.77F
GALLATIN       PTCLDY    54  30  40 VRB7      29.79S
DICKSON          N/A     46  30  53 SW15      29.77F
NASHVILLE        N/A     54  28  36 SW13G20   29.78S
PORTLAND       CLEAR     50  32  50 SW7G18    29.76R
SMYRNA           N/A     53  31  42 SW14G22   29.80S
SPARTA         MOCLDY    54  46  76 W8G16     29.78R
SPRINGFIELD    PTCLDY    48  32  53 SW20G29   29.75S
WEST NASHVILLE CLEAR     52  30  43 SW17      29.77R
$$
TNZ056-058-060-061-075>077-079-093>097-230600
...SOUTHERN MIDDLE TENNESSEE...

CITY           SKY/WX    TMP DP  RH WIND       PRES   REMARKS
COLUMBIA       CLEAR     50  28  43 SW12G20   29.80S
FAYETTEVILLE   CLEAR     52  34  50 SW9G16    29.84S
MCMINNVILLE    PTCLDY    52  36  54 W18G30    29.80R
SHELBYVILLE    CLEAR     50  30  46 SW10      29.81F
TULLAHOMA      PTCLDY    50  36  57 SW14G22   29.82S
WINCHESTER     CLEAR     54  32  43 W15       29.84R
$$


...KEY TO REMARKS...
VSB - VISIBILITY IN MILES
WCI - WIND CHILL INDEX
HX  - HEAT INDEX




USA.gov is the U.S. government's official web portal to all federal, state and local government web resources and services.